Weather History for HESN - November, 2011

Change the Weather History Date:

Wednesday, November 30, 2011

  Actual Average Record
Temperature  
Mean Temperature 63 °F -  
Max Temperature 76 °F 73 °F 91 °F (2005)
Min Temperature 50 °F 51 °F 50 °F (1999)
Degree Days  
Heating Degree Days 2    
Growing Degree Days 13 (Base 50)    
Moisture  
Dew Point 38 °F    
Average Humidity 34    
Maximum Humidity 44    
Minimum Humidity 20    
Precipitation  
Precipitation 0.00 in 0.00 in - ()
Sea Level Pressure  
Sea Level Pressure 30.07 in    
Wind  
Wind Speed 3 mph ()    
Max Wind Speed 7 mph    
Max Gust Speed -    
Visibility 6.0 miles    
Events      
Averages and records for this station are not official NWS values.
T = Trace of Precipitation, MM = Missing Value Source: Averaged Metar Reports

Daily Weather History Graph

Daily Weather History Graph

Search for Another Location

Airport or City:

Trip Planner

Search our weather history database for the weather conditions in past years. The results will help you decide how hot, cold, wet, or windy it might be!

Date:

Astronomy

Nov. 30, 2011 Rise Set
Actual Time 6:13 AM EET 5:00 PM EET
Civil Twilight 5:49 AM EET 5:25 PM EET
Nautical Twilight 5:21 AM EET 5:53 PM EET
Astronomical Twilight 4:53 AM EET 6:20 PM EET
Moon 10:37 AM EET (11/30) 10:17 PM EET (11/30)
Length of Visible Light 11h 35m
Length of Day
10h 46m
Waxing Crescent, 30% of the Moon is Illuminated
Nov 30
Waxing Crescent
Dec 2
First Quarter
Dec 10
Full
Dec 18
Last Quarter
Dec 24
New

Hourly Weather History & Observations

Time (EET) Temp. Dew Point Humidity Pressure Visibility Wind Dir Wind Speed Gust Speed Precip Events Conditions
12:00 AM 59.0 °F 33.8 °F 39% 30.12 in - Calm Calm - N/A   Clear
1:00 AM 57.2 °F 35.6 °F 44% 30.12 in - Calm Calm - N/A   Clear
8:00 AM 55 °F 33 °F 31% 30.15 in 6 mi North 4.6 mph - -  
8:00 AM 55.4 °F 33.8 °F 44% 30.12 in - North 4.6 mph - N/A   Clear
9:00 AM 59.0 °F 35.6 °F 42% 30.12 in - North 6.9 mph - N/A   Clear
10:00 AM 62.6 °F 35.6 °F 37% 30.12 in - North 6.9 mph - N/A   Clear
11:00 AM 68.0 °F 41.0 °F 37% 30.09 in - North 5.8 mph - N/A   Clear
12:00 PM 71.6 °F 42.8 °F 35% 30.06 in - North 4.6 mph - N/A   Clear
1:00 PM 73.4 °F 42.8 °F 33% 30.04 in - North 4.6 mph - N/A   Clear
2:00 PM 75 °F 42 °F 20% 30.02 in 6 mi NNW 4.6 mph - -  
2:00 PM 75.2 °F 41.0 °F 29% 30.04 in - NNW 4.6 mph - N/A   Clear
3:00 PM 77.0 °F 39.2 °F 26% 30.04 in - NNW 5.8 mph - N/A   Clear
5:00 PM 73.4 °F 37.4 °F 27% 30.04 in - NW 5.8 mph - N/A   Clear
6:00 PM 69.8 °F 37.4 °F 31% 30.04 in - North 4.6 mph - N/A   Clear
7:00 PM 68.0 °F 39.2 °F 35% 30.06 in - North 4.6 mph - N/A   Clear
8:00 PM 67 °F 38 °F 24% 30.06 in 6 mi North 4.6 mph - -  
8:00 PM 66.2 °F 39.2 °F 37% 30.06 in - North 4.6 mph - N/A   Clear
9:00 PM 66.2 °F 39.2 °F 37% 30.06 in - North 4.6 mph - N/A   Clear
10:00 PM 64.4 °F 39.2 °F 40% 30.06 in - Calm Calm - N/A   Clear
11:00 PM 59.0 °F 33.8 °F 39% 30.06 in - North 5.8 mph - N/A   Clear